| time (UTC) | temp F | wind direction | speed knots | gust knots | rain 1hr in | rain 24hr in | rain mn in | humidity % | barometer mb |
| 20260507201506 | 66 | 222 | 6.1 | 12.2 | 0.00 | 0.25 | 0.25 | 44 | 1016.0 |
| 20260507200004 | 66 | 210 | 3.5 | 7.8 | 0.00 | 0.25 | 0.25 | 44 | 1016.2 |
| 20260507194507 | 66 | 203 | 4.3 | 10.4 | 0.00 | 0.25 | 0.25 | 46 | 1016.3 |
| 20260507193002 | 66 | 180 | 3.5 | 7.8 | 0.00 | 0.25 | 0.25 | 46 | 1016.2 |
| 20260507191502 | 67 | 168 | 3.5 | 7.0 | 0.00 | 0.25 | 0.25 | 45 | 1016.0 |
| 20260507190113 | 67 | 227 | 1.7 | 5.2 | 0.00 | 0.25 | 0.25 | 43 | 1015.8 |
| 20260507184559 | 67 | 197 | 2.6 | 5.2 | 0.00 | 0.25 | 0.25 | 42 | 1015.6 |
| 20260507183116 | 67 | 198 | 5.2 | 9.6 | 0.00 | 0.25 | 0.25 | 40 | 1015.7 |
| 20260507181601 | 68 | 274 | 3.5 | 9.6 | 0.00 | 0.25 | 0.25 | 39 | 1015.4 |
| 20260507180059 | 68 | 246 | 5.2 | 13.0 | 0.00 | 0.25 | 0.25 | 38 | 1015.4 |
| 20260507174604 | 68 | 215 | 6.1 | 13.9 | 0.00 | 0.25 | 0.25 | 37 | 1015.4 |
| 20260507173108 | 69 | 222 | 7.0 | 10.4 | 0.00 | 0.25 | 0.25 | 37 | 1015.3 |
| 20260507171555 | 69 | 210 | 7.0 | 12.2 | 0.00 | 0.25 | 0.25 | 36 | 1015.3 |
| 20260507170057 | 70 | 215 | 7.0 | 10.4 | 0.00 | 0.25 | 0.25 | 35 | 1015.2 |
| 20260507164627 | 70 | 210 | 6.1 | 11.3 | 0.00 | 0.25 | 0.25 | 36 | 1015.3 |
| 20260507163056 | 71 | 202 | 3.5 | 12.2 | 0.00 | 0.25 | 0.25 | 36 | 1015.3 |
| 20260507161558 | 71 | 224 | 5.2 | 13.0 | 0.00 | 0.25 | 0.25 | 36 | 1015.4 |
| 20260507160052 | 71 | 209 | 7.0 | 13.0 | 0.00 | 0.25 | 0.25 | 36 | 1015.3 |
| 20260507154556 | 72 | 222 | 6.1 | 12.2 | 0.00 | 0.25 | 0.25 | 34 | 1015.4 |
| 20260507153051 | 72 | 216 | 7.8 | 13.9 | 0.00 | 0.25 | 0.25 | 36 | 1015.1 |
| 20260507151550 | 73 | 208 | 7.0 | 13.9 | 0.00 | 0.25 | 0.25 | 35 | 1015.2 |
| 20260507150049 | 73 | 291 | 5.2 | 12.2 | 0.00 | 0.25 | 0.25 | 35 | 1015.1 |
| 20260507144546 | 73 | 229 | 6.1 | 13.0 | 0.00 | 0.25 | 0.25 | 37 | 1015.3 |
| 20260507143047 | 72 | 31 | 5.2 | 9.6 | 0.00 | 0.25 | 0.25 | 42 | 1015.4 |
| 20260507141544 | 72 | 253 | 7.0 | 14.8 | 0.00 | 0.25 | 0.25 | 44 | 1015.5 |
| 20260507140045 | 73 | 224 | 5.2 | 13.0 | 0.00 | 0.25 | 0.25 | 41 | 1015.5 |
| 20260507134544 | 74 | 257 | 9.6 | 19.1 | 0.00 | 0.25 | 0.25 | 43 | 1015.5 |
| 20260507133047 | 73 | 227 | 7.8 | 15.6 | 0.00 | 0.25 | 0.25 | 44 | 1015.5 |
| 20260507131541 | 73 | 261 | 7.0 | 13.9 | 0.00 | 0.25 | 0.25 | 47 | 1015.7 |
| 20260507130042 | 72 | 223 | 7.8 | 14.8 | 0.00 | 0.25 | 0.25 | 50 | 1015.9 |
| 20260507124540 | 73 | 192 | 5.2 | 12.2 | 0.00 | 0.25 | 0.25 | 49 | 1016.0 |
| 20260507123037 | 73 | 264 | 8.7 | 14.8 | 0.00 | 0.25 | 0.25 | 49 | 1016.1 |
| 20260507121535 | 73 | 272 | 7.0 | 16.5 | 0.00 | 0.25 | 0.25 | 51 | 1015.8 |
| 20260507120033 | 73 | 229 | 6.1 | 17.4 | 0.00 | 0.25 | 0.25 | 55 | 1015.9 |
| 20260507114553 | 72 | 247 | 6.1 | 17.4 | 0.00 | 0.25 | 0.25 | 57 | 1015.7 |
| 20260507113057 | 72 | 251 | 9.6 | 18.2 | 0.00 | 0.25 | 0.25 | 58 | 1016.0 |
| 20260507111536 | 72 | 5 | 5.2 | 18.2 | 0.00 | 0.25 | 0.25 | 62 | 1016.0 |
| 20260507110025 | 71 | 258 | 12.2 | 19.1 | 0.00 | 0.25 | 0.25 | 62 | 1016.4 |
| 20260507104527 | 70 | 218 | 11.3 | 20.9 | 0.00 | 0.25 | 0.25 | 63 | 1016.2 |
| 20260507103025 | 70 | 273 | 10.4 | 19.1 | 0.00 | 0.25 | 0.25 | 64 | 1016.3 |
| 20260507101524 | 70 | 328 | 10.4 | 24.3 | 0.00 | 0.25 | 0.25 | 65 | 1016.4 |
| 20260507100020 | 70 | 305 | 10.4 | 26.1 | 0.00 | 0.25 | 0.25 | 64 | 1016.4 |
| 20260507094517 | 69 | 231 | 7.8 | 18.2 | 0.00 | 0.25 | 0.25 | 68 | 1016.4 |
| 20260507093014 | 68 | 215 | 8.7 | 20.9 | 0.00 | 0.25 | 0.25 | 70 | 1016.4 |
| 20260507091512 | 68 | 250 | 7.8 | 15.6 | 0.00 | 0.25 | 0.25 | 72 | 1016.2 |
| 20260507090009 | 67 | 270 | 9.6 | 21.7 | 0.00 | 0.25 | 0.25 | 76 | 1015.8 |
| 20260507084507 | 67 | 214 | 13.0 | 20.9 | 0.00 | 0.25 | 0.25 | 79 | 1015.5 |
| 20260507083004 | 66 | 217 | 7.8 | 20.9 | 0.00 | 0.25 | 0.25 | 80 | 1015.4 |
| 20260507081503 | 66 | 224 | 9.6 | 16.5 | 0.00 | 0.25 | 0.25 | 80 | 1015.4 |
| 20260507080059 | 65 | 261 | 8.7 | 14.8 | 0.00 | 0.25 | 0.25 | 80 | 1015.5 |
| 20260507074600 | 64 | 213 | 8.7 | 23.5 | 0.00 | 0.25 | 0.25 | 82 | 1015.8 |
| 20260507073100 | 64 | 211 | 10.4 | 24.3 | 0.00 | 0.25 | 0.25 | 82 | 1016.3 |
| 20260507071555 | 63 | 248 | 11.3 | 22.6 | 0.00 | 0.25 | 0.25 | 82 | 1016.5 |
| 20260507070054 | 63 | 258 | 7.0 | 13.9 | 0.00 | 0.25 | 0.25 | 83 | 1016.3 |
| 20260507064555 | 62 | 229 | 7.0 | 14.8 | 0.00 | 0.25 | 0.25 | 82 | 1016.1 |
| 20260507063051 | 62 | 181 | 9.6 | 15.6 | 0.01 | 0.25 | 0.25 | 83 | 1016.2 |
| 20260507061551 | 61 | 229 | 6.1 | 15.6 | 0.02 | 0.25 | 0.25 | 88 | 1016.8 |
| 20260507060056 | 61 | 218 | 7.8 | 16.5 | 0.02 | 0.25 | 0.25 | 90 | 1017.4 |
| 20260507054548 | 62 | 224 | 6.1 | 11.3 | 0.03 | 0.25 | 0.25 | 91 | 1017.4 |
| 20260507053037 | 62 | 204 | 4.3 | 8.7 | 0.03 | 0.24 | 0.24 | 91 | 1017.5 |
| 20260507051536 | 62 | 184 | 4.3 | 7.8 | 0.03 | 0.24 | 0.24 | 91 | 1017.6 |
| 20260507050035 | 62 | 186 | 3.5 | 7.0 | 0.06 | 0.23 | 0.23 | 91 | 1017.8 |
| 20260507044534 | 62 | 212 | 2.6 | 6.1 | 0.08 | 0.22 | 0.22 | 91 | 1017.6 |
| 20260507043035 | 62 | 201 | 2.6 | 3.5 | 0.09 | 0.21 | 0.21 | 91 | 1017.2 |
| 20260507041531 | 62 | 178 | 1.7 | 7.0 | 0.08 | 0.20 | 0.20 | 90 | 1017.2 |
| 20260507040030 | 62 | 213 | 2.6 | 8.7 | 0.06 | 0.17 | 0.17 | 90 | 1017.5 |
| 20260507034534 | 61 | 210 | 4.3 | 13.9 | 0.02 | 0.14 | 0.14 | 91 | 1017.4 |
| 20260507033026 | 61 | 243 | 5.2 | 13.0 | 0.02 | 0.13 | 0.13 | 91 | 1017.3 |
| 20260507031524 | 61 | 224 | 6.1 | 11.3 | 0.04 | 0.13 | 0.13 | 91 | 1017.1 |
| 20260507030022 | 61 | 279 | 2.6 | 7.8 | 0.04 | 0.12 | 0.12 | 91 | 1016.8 |
| 20260507024519 | 61 | 261 | 1.7 | 4.3 | 0.05 | 0.12 | 0.12 | 90 | 1016.3 |
| 20260507023016 | 62 | 319 | 1.7 | 3.5 | 0.04 | 0.09 | 0.09 | 89 | 1016.3 |
| 20260507021515 | 62 | 271 | 0.0 | 10.4 | 0.04 | 0.09 | 0.09 | 89 | 1015.9 |
| 20260507020018 | 62 | 205 | 4.3 | 13.0 | 0.04 | 0.08 | 0.08 | 88 | 1015.9 |
| 20260507014512 | 62 | 221 | 7.0 | 14.8 | 0.02 | 0.06 | 0.06 | 87 | 1016.3 |
| 20260507013009 | 62 | 238 | 5.2 | 9.6 | 0.04 | 0.06 | 0.06 | 87 | 1016.4 |
| 20260507011512 | 63 | 307 | 3.5 | 6.1 | 0.04 | 0.05 | 0.05 | 86 | 1016.3 |
| 20260507010006 | 62 | 224 | 1.7 | 6.1 | 0.03 | 0.04 | 0.04 | 87 | 1016.2 |
| 20260507004504 | 63 | 274 | 2.6 | 7.0 | 0.04 | 0.04 | 0.04 | 87 | 1016.4 |
| 20260507003001 | 63 | 222 | 2.6 | 6.1 | 0.02 | 0.02 | 0.02 | 86 | 1016.1 |
| 20260507001502 | 63 | 223 | 0.9 | 3.5 | 0.01 | 0.01 | 0.01 | 85 | 1016.0 |
| 20260506234603 | 64 | 255 | 0.0 | 0.0 | 0.00 | 0.00 | 0.00 | 84 | 1015.7 |
| 20260506233100 | 64 | 289 | 0.0 | 0.0 | 0.00 | 0.00 | 0.00 | 83 | 1015.9 |
| 20260506231605 | 64 | 209 | 0.9 | 4.3 | 0.00 | 0.00 | 0.00 | 82 | 1015.7 |
| 20260506230111 | 64 | 321 | 0.0 | 6.1 | 0.00 | 0.00 | 0.00 | 81 | 1015.8 |
| 20260506224555 | 64 | 271 | 0.0 | 5.2 | 0.00 | 0.00 | 0.00 | 81 | 1015.8 |
| 20260506223052 | 64 | 307 | 0.9 | 7.8 | 0.00 | 0.00 | 0.00 | 81 | 1016.0 |
| 20260506221605 | 64 | 214 | 1.7 | 6.1 | 0.00 | 0.00 | 0.00 | 81 | 1016.0 |
| 20260506220049 | 65 | 264 | 3.5 | 7.8 | 0.00 | 0.00 | 0.00 | 81 | 1016.1 |
| 20260506214554 | 65 | 240 | 4.3 | 12.2 | 0.00 | 0.00 | 0.00 | 80 | 1016.1 |
| 20260506213048 | 64 | 259 | 4.3 | 10.4 | 0.00 | 0.00 | 0.00 | 80 | 1016.1 |
| 20260506211547 | 64 | 279 | 3.5 | 9.6 | 0.00 | 0.00 | 0.00 | 80 | 1016.2 |
| 20260506210054 | 64 | 290 | 4.3 | 9.6 | 0.00 | 0.00 | 0.00 | 80 | 1016.0 |
| 20260506204547 | 64 | 293 | 5.2 | 9.6 | 0.00 | 0.00 | 0.00 | 80 | 1015.7 |
| 20260506203045 | 64 | 249 | 2.6 | 11.3 | 0.00 | 0.00 | 0.00 | 80 | 1015.6 |